Weather in Behbahan

Iran     30°35′37″N   50°14′18″E
temp.,
°C
wind,
m/s
gust,
m/s
humid.,
%
clouds,
%
prec.,
mm/h
press.,
hPa
HPBL,
m
8 may, sat
sat801:30+27se22210 0.0 100811
04:30+26ese23200 0.0 100811
07:30+28e22180 0.0 100815
10:30+34sse46120 0.0 10091439
13:30+36ssw108140 0.0 10072407
16:30+35ssw6520100 0.0 10061796
19:30+32sw44280 0.0 1006143
22:30+27se35520 0.0 100880
9 may, sun
sun901:30+26ese11540 0.0 100811
04:30+24ne00550 0.0 100711
07:30+26ne11450 0.0 100811
10:30+33nw35200 0.0 10081180
13:30+36w74130 0.0 10072987
16:30+36w65100 0.0 10052994
19:30+33w46130 0.0 1005115
22:30+28ese33270 0.0 100729
10 may, mon
mon1001:30+26e12280 0.0 100611
04:30+26ese33270 0.0 100611
07:30+27e22240 0.0 100719
10:30+34s21140 0.0 1007858
13:30+37wsw43110 0.0 10052605
16:30+38wsw75110 0.0 10033021
19:30+32ssw46180 0.0 1004203
22:30+29ese44200 0.0 100637
11 may, tue
tue1101:30+28e22210 0.0 100611
04:30+26ene11240 0.0 100511
07:30+29e22210 0.0 100712
10:30+36ese22140 0.0 1007811
13:30+40wsw4390 0.0 10063703
16:30+40w75870 0.0 10043099
19:30+34sw451984 0.0 1004106
22:30+30e22230 0.0 100611
12 may, wed
wed1201:30+29e22220 0.0 100511
04:30+27ene11240 0.0 100511
07:30+30ene22180 0.0 100611
10:30+37se12110 0.0 1006787
13:30+40wsw6490 0.0 10053217
16:30+41w758100 0.0 10034126
19:30+37wsw68115 0.0 1003170
22:30+31ne221799 0.0 100511